Batman, Turkey

11:22 PM +03 on April 23, 2017 (GMT +0300)
Batman Air Base

Weather History for LTCJ - November, 2012

Change the Weather History Date:

Saturday, November 10, 2012

  Actual Average (LTCC) Record (LTCC)
Temperature  
Mean Temperature 64 °F -  
Max Temperature 68 °F 62 °F 73 °F (2010)
Min Temperature 59 °F 40 °F 28 °F (2011)
Degree Days  
Heating Degree Days 2    
Growing Degree Days 14 (Base 50)    
Moisture  
Dew Point 52 °F    
Average Humidity 68    
Maximum Humidity 82    
Minimum Humidity 52    
Precipitation  
Precipitation 0.00 in - - ()
Sea Level Pressure  
Sea Level Pressure 29.89 in    
Wind  
Wind Speed 10 mph ()    
Max Wind Speed 23 mph    
Max Gust Speed 29 mph    
Visibility 6.1 miles    
Events Rain , Thunderstorm    
Averages and records for this station are not official NWS values.
T = Trace of Precipitation, MM = Missing Value Source: Averaged Metar Reports

Daily Weather History Graph

Daily Weather History Graph

Search for Another Location

Airport or City:

Trip Planner

Search our weather history database for the weather conditions in past years. The results will help you decide how hot, cold, wet, or windy it might be!

Date:

Astronomy

Nov. 10, 2012 Rise Set
Actual Time 5:50 AM EET 4:07 PM EET
Civil Twilight 5:22 AM EET 4:35 PM EET
Nautical Twilight 4:51 AM EET 5:06 PM EET
Astronomical Twilight 4:20 AM EET 5:37 PM EET
Moon 1:35 AM EET (11/10) 1:38 PM EET (11/10)
Length of Visible Light 11h 12m
Length of Day
10h 17m
Waning Crescent, 17% of the Moon is Illuminated
Nov 10
Waning Crescent
Nov 14
New
Nov 20
First Quarter
Nov 28
Full
Dec 6
Last Quarter

Hourly Weather History & Observations

Time (EET) Temp. Dew Point Humidity Pressure Visibility Wind Dir Wind Speed Gust Speed Precip Events Conditions
12:20 AM 66.2 °F 50.0 °F 56% 29.86 in 6.2 mi ESE 11.5 mph - N/A   Mostly Cloudy
12:50 AM 64.4 °F 50.0 °F 59% 29.86 in 6.2 mi ESE 13.8 mph - N/A   Mostly Cloudy
1:20 AM 64.4 °F 50.0 °F 59% 29.86 in 6.2 mi East 4.6 mph - N/A   Mostly Cloudy
1:50 AM 64.4 °F 50.0 °F 59% 29.86 in 6.2 mi SE 6.9 mph - N/A   Mostly Cloudy
2:20 AM 66.2 °F 48.2 °F 52% 29.86 in 6.2 mi ESE 5.8 mph - N/A   Mostly Cloudy
2:50 AM 66.2 °F 50.0 °F 56% 29.86 in 6.2 mi ENE 5.8 mph - N/A   Mostly Cloudy
3:20 AM 62.6 °F 51.8 °F 68% 29.83 in 6.2 mi Variable 4.6 mph - N/A   Mostly Cloudy
3:50 AM 62.6 °F 53.6 °F 72% 29.86 in 5.6 mi East 8.1 mph - N/A Rain , Thunderstorm Light Thunderstorms and Rain
4:20 AM 60.8 °F 53.6 °F 77% 29.86 in 6.2 mi NNE 9.2 mph - N/A Rain , Thunderstorm Light Thunderstorms and Rain
4:50 AM 62.6 °F 51.8 °F 68% 29.83 in 6.2 mi East 9.2 mph - N/A   Mostly Cloudy
5:20 AM 62.6 °F 51.8 °F 68% 29.86 in 6.2 mi SE 17.3 mph - N/A   Mostly Cloudy
5:50 AM 64.4 °F 51.8 °F 64% 29.86 in 6.2 mi SE 18.4 mph - N/A Rain , Thunderstorm Light Thunderstorms and Rain
6:20 AM 62.6 °F 51.8 °F 68% 29.89 in 6.2 mi SE 15.0 mph - N/A Thunderstorm Thunderstorm
6:50 AM 59.0 °F 53.6 °F 82% 29.86 in 3.7 mi ESE 23.0 mph - N/A Rain , Thunderstorm Light Thunderstorms and Rain
7:20 AM 60.8 °F 53.6 °F 77% 29.89 in 6.2 mi ESE 11.5 mph - N/A   Mostly Cloudy
7:50 AM 60.8 °F 51.8 °F 72% 29.89 in 6.2 mi SE 16.1 mph 28.8 mph N/A   Mostly Cloudy
8:20 AM 60.8 °F 53.6 °F 77% 29.89 in 6.2 mi NNE 8.1 mph - N/A   Mostly Cloudy
8:50 AM 60.8 °F 51.8 °F 72% 29.92 in 6.2 mi ENE 6.9 mph - N/A   Mostly Cloudy
9:20 AM 62.6 °F 51.8 °F 68% 29.92 in 6.2 mi East 6.9 mph - N/A   Mostly Cloudy
9:50 AM 62.6 °F 53.6 °F 72% 29.92 in 6.2 mi ENE 11.5 mph - N/A   Mostly Cloudy
10:20 AM 64.4 °F 55.4 °F 73% 29.89 in 6.2 mi ENE 12.7 mph - N/A   Mostly Cloudy
10:50 AM 64.4 °F 53.6 °F 68% 29.89 in 6.2 mi East 11.5 mph - N/A   Mostly Cloudy
11:20 AM 66.2 °F 53.6 °F 64% 29.89 in 6.2 mi SE 11.5 mph - N/A   Mostly Cloudy
11:50 AM 68.0 °F 53.6 °F 60% 29.86 in 6.2 mi SE 16.1 mph - N/A   Mostly Cloudy
12:20 PM 68.0 °F 53.6 °F 60% 29.86 in 6.2 mi SE 18.4 mph - N/A   Scattered Clouds
12:50 PM 68.0 °F 53.6 °F 60% 29.86 in 6.2 mi SE 21.9 mph - N/A   Scattered Clouds
1:20 PM 68.0 °F 51.8 °F 56% 29.86 in 6.2 mi SE 19.6 mph - N/A   Scattered Clouds
1:50 PM 68.0 °F 51.8 °F 56% 29.86 in 6.2 mi SE 21.9 mph - N/A   Scattered Clouds
2:20 PM 66.2 °F 51.8 °F 60% 29.86 in 6.2 mi SE 20.7 mph - N/A   Mostly Cloudy
2:50 PM 66.2 °F 51.8 °F 60% 29.86 in 6.2 mi SSE 19.6 mph - N/A   Mostly Cloudy
3:20 PM 66.2 °F 50.0 °F 56% 29.86 in 6.2 mi SSE 16.1 mph - N/A   Mostly Cloudy
3:50 PM 66.2 °F 50.0 °F 56% 29.89 in 6.2 mi SSE 15.0 mph - N/A   Mostly Cloudy
4:20 PM 64.4 °F 51.8 °F 64% 29.89 in 6.2 mi SSE 13.8 mph - N/A   Mostly Cloudy
4:50 PM 64.4 °F 51.8 °F 64% 29.92 in 6.2 mi South 10.4 mph - N/A   Mostly Cloudy
5:20 PM 64.4 °F 51.8 °F 64% 29.92 in 6.2 mi SSE 15.0 mph - N/A   Mostly Cloudy
5:50 PM 62.6 °F 51.8 °F 68% 29.92 in 6.2 mi SE 12.7 mph - N/A Rain Light Rain Showers
6:20 PM 62.6 °F 53.6 °F 72% 29.92 in 6.2 mi SSE 4.6 mph - N/A   Mostly Cloudy
6:50 PM 62.6 °F 53.6 °F 72% 29.95 in 6.2 mi SE 5.8 mph - N/A   Mostly Cloudy
7:20 PM 60.8 °F 53.6 °F 77% 29.95 in 6.2 mi ESE 8.1 mph - N/A   Mostly Cloudy
7:50 PM 60.8 °F 53.6 °F 77% 29.95 in 6.2 mi SE 5.8 mph - N/A   Mostly Cloudy
8:20 PM 62.6 °F 51.8 °F 68% 29.95 in 6.2 mi SSE 9.2 mph - N/A   Mostly Cloudy
8:50 PM 62.6 °F 53.6 °F 72% 29.95 in 6.2 mi SSE 3.5 mph - N/A   Mostly Cloudy
9:20 PM 60.8 °F 53.6 °F 77% 29.95 in 6.2 mi Variable 1.2 mph - N/A   Mostly Cloudy
9:50 PM 59.0 °F 53.6 °F 82% 29.95 in 6.2 mi NE 4.6 mph - N/A   Mostly Cloudy
10:20 PM 59.0 °F 53.6 °F 82% 29.95 in 6.2 mi North 4.6 mph - N/A   Mostly Cloudy
10:50 PM 59.0 °F 53.6 °F 82% 29.98 in 6.2 mi Variable 3.5 mph - N/A   Mostly Cloudy
11:20 PM 60.8 °F 53.6 °F 77% 29.95 in 6.2 mi NNE 3.5 mph - N/A   Mostly Cloudy
11:50 PM 59.0 °F 53.6 °F 82% 29.95 in 6.2 mi Variable 3.5 mph - N/A   Mostly Cloudy